Home > Weather > Gainesville > Past weeks

Flag for U.S.A. Weather for the Past 2 Weeks in Gainesville, Florida, U.S.A.

Now
49 °F

Clear.


Feels Like: 46 °F
Forecast: 36 / 63 °F
Wind: 7 mph from North

Location: Gainesville Regional Airport

Current Time: Feb 13, 2016 at 9:52:56 PM

Latest Report: Feb 13, 2016 at 8:53 PM


Visibility: 10 mi

Pressure: 30.31 "Hg

Humidity: 36%

Dew point: 23 °F

Location of GainesvilleLocation

Historic Weather in Gainesville — Graph

°F

Gainesville Temperature Yesterday

Maximum temperature yesterday: 75 °F (at 12:53 PM)
Minimum temperature yesterday: 47 °F (at 6:53 AM)
Average temperature yesterday: 61 °F

High & Low Weather Summary for the Past Weeks

 TemperatureHumidityPressure
High82 °F (Feb 2, 2:53 PM)100% (Jan 30, 2:53 AM)30.34 "Hg (Jan 30, 2:53 AM)
Low28 °F (Feb 11, 6:53 AM)18% (Feb 13, 4:53 PM)29.81 "Hg (Feb 8, 7:53 PM)
Average54 °F70%30.11 "Hg
* Reported Jan 29 7:53 PM — Feb 13 7:53 PM, Gainesville, Weather by CustomWeather, © 2016

Note: Actual official high and low records may vary slightly from our data, if they occured in-between our weather recording intervals... More about our weather records

Advertising

Gainesville Weather History for the Previous 24 Hours

 ConditionsComfort  
Time TempWeatherWind HumidityBarometerVisibility
7:53 PM
Sat, Feb 13
51 °FClear.7 mph33%30.29 "Hg10 mi
6:53 PM53 °FClear.7 mph32%30.26 "Hg10 mi
5:53 PM59 °FSunny.6 mph21%30.24 "Hg10 mi
4:53 PM61 °FSunny.10 mph18%30.24 "Hg10 mi
3:53 PM63 °FSunny.10 mph21%30.23 "Hg10 mi
2:53 PM65 °FSunny.9 mph21%30.24 "Hg10 mi
1:53 PM63 °FSunny.9 mph22%30.25 "Hg10 mi
12:53 PM62 °FSunny.10 mph19%30.26 "Hg10 mi
11:53 AM60 °FSunny.7 mph26%30.29 "Hg10 mi
10:53 AM57 °FSunny.10 mph41%30.29 "Hg10 mi
9:53 AM55 °FSunny.10 mph51%30.29 "Hg10 mi
8:53 AM52 °FSunny.13 mph59%30.28 "Hg10 mi
7:53 AM50 °FSunny.6 mph80%30.25 "Hg10 mi
6:53 AM51 °FClear.9 mph86%30.23 "Hg10 mi
5:53 AM52 °FClear.6 mph93%30.19 "Hg10 mi
4:53 AM53 °FClear.5 mph96%30.16 "Hg10 mi
3:53 AM53 °FPassing clouds.6 mph100%30.15 "Hg7 mi
3:02 AM52 °FFog.6 mph100%30.15 "Hg6 mi
2:53 AM52 °FFog.6 mph100%30.14 "Hg6 mi
1:53 AM54 °FClear.6 mph100%30.15 "Hg10 mi
12:53 AM57 °FClear.8 mph96%30.16 "Hg10 mi
11:53 PM
Fri, Feb 12
58 °FPassing clouds.8 mph93%30.16 "Hg10 mi
10:53 PM59 °FPassing clouds.12 mph90%30.16 "Hg10 mi
9:53 PM60 °FOvercast.12 mph86%30.16 "Hg10 mi
Weather by CustomWeather, © 2016

See weather overviewHow to use our weather pages